Location: Zagreb
(45.8000°N, 16.0000°E)
Time: 19:56:27
(UTC+01:00)

YUBILEINY - Pass Details

Date: 07 November 2020
Orbit: 1478 x 1509 km, 82.5° (Epoch: 01 December)

Event Time Altitude Azimuth Distance (km) Brightness Sun altitude
Rises 19:13:15 0° 354° (N) 4,610 ? -28.0°
Reaches altitude 10° 19:16:35 10° 4° (N) 3,627 ? -28.6°
Enters shadow 19:21:17 27° 33° (NNE) 2,547 ? -29.4°
